STARLINK-32707, 62478

Orbit data source: Space-Track

STARLINK-32707, 62478 is a payload satellite owned by SpaceX/Seattle (US) in LEO that was launched on Tue, 31 Dec 2024 UTC via an FALCON 9 launch vehicle from the Air Force Eastern Test Range (AFETR). Payloads include a variety of satellites, spacecraft, and rockets equipped with specific instruments for various scientific and technological missions. These include communications satellites like Starlink; space stations such as the ISS; scientific satellites like the Hubble; Earth observation satellites from companies like Planet Labs, Umbra, and HawkEye 360; GPS; miniature CubeSats for education and research; and military/defense satellites.

Loading next visibility...
STARLINK-32707 details
Identifier
62478, 2024-254S
Orbit
LEO
Last TLE update16 hours ago
Origin
Flag of USSpaceX/Seattle (US)
ManufacturerSpaceX/Seattle
MissionOperational Commercial Communications
Bus & MotorSTARLINK V2M, Unknown motor
Mass730 kg wet, ~700 kg dry
Launch date (UTC)
2024-12-31 (1 month ago)
Launch vehicle
FALCON 9
Launch site
Air Force Eastern Test Range (AFETR)
Object type
Payload
Rocket body
Debris
Shape & HBRBox + 2 Pan, 29 m
Radar Cross Section33.884 m², Large (>1 m²)

Expand to show TLE details & history

TLE from 16 hours ago
0 STARLINK-32707
1 62478U 24254S   25035.58335648 -.01482633  00000-0 -30529-1 0  9990
2 62478  43.0002 107.6727 0001455 272.2997  63.2237 15.48015815  6086
Epoch: 2025-02-04T14:00Z
Definitive object data (Epoch: 2025-02-04T14:00:01.999Z)
Latitude-16.54781°
Longitude104.2054°
Altitude425.439 km
Speed7.657 km/s
True Right ascension05h 56m 48s
True Declination-16° 26' 59"
Sunlit
Object was in full shadow at TLE epoch
Visualization TLE readout
Latitude42.93622°
Longitude-144.04977°
Altitude432.959 km
Speed7.657 km/s
Apparent Right ascension16h 40m 40s
Apparent Declination4° 53' 55"
Sunlit
Object is in full shadow
Visualization observer readout
Local Sidereal Time08:02:48
Azimuth58.471° ENE
Elevation-25.529°
Doppler factor1
Orbital elements
Apogee altitude425.483 km
Perigee altitude423.504 km
Semi-major axis6,802.63 km
Eccentricity0.0001455
Inclination43.0002°
RAAN107.6727°
Arg. of periapsis272.2997°
True anomaly63.23859°
Mean anomaly63.2237°
Eccentric anomaly63.23114°
Mean motion3.86837 °/min
BSTAR-0.030529
Orbital period93.06 mins
Loading maneuver chart data...
Loading historical data...
Loading historical data...
Loading historical data...
Loading historical data...
Loading historical data...
Loading historical data...
Loading historical data...

STARLINK-32707 Visibility forecast

Observer location: undefined°, undefined

Span
Click to sort rows by Start time (UTC) header in descending order
Start Az.
Max El. time (UTC)
Max El. Az.
Max El.
End time (UTC)
End Az.
4 mins2025-02-05 07:20:42.194Z186.129° SSW2025-02-05 07:22:42.194Z144.803° SSE18.339°2025-02-05 07:24:42.194Z103.938° ESE
5 mins2025-02-05 08:57:42.194Z249.017° W2025-02-05 08:59:42.194Z242.537° WSW42.709°2025-02-05 09:02:42.194Z72.462° E
4 mins2025-02-05 10:36:42.194Z300.648° NW2025-02-05 10:37:42.194Z337.348° NNW35.96°2025-02-05 10:40:42.194Z71.26° E
5 mins2025-02-05 12:13:42.194Z291.301° WNW2025-02-05 12:15:42.194Z323.064° NNW42.904°2025-02-05 12:18:42.194Z101.421° ESE
4 mins2025-02-05 13:51:42.194Z258.679° W2025-02-05 13:53:42.194Z208.264° SW23.991°2025-02-05 13:55:42.194Z161.862° S
|